Retour au catalogue

STARLINK-5171

ActifCommunicationsVLEO
NORAD 54077·PAYLOAD·🇺🇸 United States

Lancé Oct 20, 2022 depuis Cape Canaveral Space Force Station

Loading…

Prochains Passages (prochaines 24 heures)

TLE

FraisSource: CelesTrak SupGP

Époque: Sep 15, 2026, 01:36 UTC

1 54077C 22136AC  26258.06715278 -.00018695  00000+0 -11727-2 0  2584
2 54077  53.1588 188.9788 0001449  89.3175  33.5593 15.08833353    13

Suivez STARLINK-5171 en temps réel avec AllMySat

Download on the App Store